Location: Pompeys Pillar
(45.9913°N, 107.9528°W)
Time: 05:11:18
(UTC+00:00)

Tiros 1 - Pass Details

Date: 06 June 2022
Orbit: 629 x 663 km, 48.4° (Epoch: 30 June)

Event Time Altitude Azimuth Distance (km) Brightness Sun altitude
Rises 08:36:47 0° 289° (WNW) 2,919 10.5 -18.6°
Reaches altitude 10° 08:39:06 10° 287° (WNW) 2,011 9.6 -18.5°
Maximum altitude 08:43:42 68° 205° (SSW) 682 7.0 -18.2°
Drops below altitude 10° 08:48:19 10° 123° (ESE) 2,019 9.6 -17.8°
Sets 08:50:39 0° 120° (ESE) 2,931 10.5 -17.7°
